• MPC Preparation (Info)

  • MPEC 2023-J96 : 2023 JS

    The following Minor Planet Electronic Circular may be linked-to from your own Web pages, but must not otherwise be redistributed electronically.

    A form allowing access to any MPEC is at the bottom of this page.


    Read MPEC 2023-J95 Read MPEC 2023-J97


    M.P.E.C. 2023-J96                                  Issued 2023 May 11, 10:30 UT
    
         The Minor Planet Electronic Circulars contain information on unusual
             minor planets, routine data on comets and natural satellites,
             and occasional editorial announcements.  They are published
        on behalf of Division F of the International Astronomical Union by the
              Minor Planet Center, Smithsonian Astrophysical Observatory,
                              Cambridge, MA 02138, U.S.A.
    			  
                 Prepared using the Tamkin Foundation Computer Network
    
                                  MPC@CFA.HARVARD.EDU
                URL https://www.minorplanetcenter.net/    ISSN 1523-6714
    
                                     2023 JS                                 
    
    
    Observations:
         K23J00S*1C2023 05 09.22222512 41 46.115+34 47 35.74         20.72GVEJ096G96
         K23J00S 1C2023 05 09.22790312 41 41.377+34 46 42.20         21.46GVEJ096G96
         K23J00S 1C2023 05 09.23357112 41 36.773+34 45 50.11         20.90GVEJ096G96
         K23J00S 1C2023 05 09.23923112 41 32.111+34 44 56.98         20.72GVEJ096G96
         K23J00S KC2023 05 09.30789812 40 35.839+34 34 05.48         21.14GVEJ096I52
         K23J00S KC2023 05 09.31324712 40 31.444+34 33 14.11         20.99GVEJ096I52
         K23J00S KC2023 05 09.31590012 40 29.305+34 32 48.84         21.43GVEJ096I52
         K23J00S KC2023 05 09.86247112 33 16.92 +33 02 27.2          20.9 GVEJ096L01
         K23J00S KC2023 05 09.86444312 33 15.25 +33 02 06.2          21.3 GVEJ096L01
         K23J00S KC2023 05 09.86641712 33 13.59 +33 01 46.0          21.0 GVEJ096L01
         K23J00S KC2023 05 09.86839412 33 11.92 +33 01 25.8          21.1 GVEJ096L01
         K23J00S KC2023 05 10.10942812 29 55.97 +32 19 02.2          20.7 VuEJ096H21
         K23J00S KC2023 05 10.11233812 29 53.47 +32 18 30.6          20.8 VuEJ096H21
         K23J00S KC2023 05 10.11526912 29 50.92 +32 17 58.9          21.0 VuEJ096H21
         K23J00S KC2023 05 10.11814512 29 48.41 +32 17 27.9          21.3 VuEJ096H21
         K23J00S KC2023 05 10.12106512 29 45.88 +32 16 56.3          21.2 VuEJ096H21
         K23J00S KC2023 05 11.19687512 14 27.024+28 44 28.46         20.60GVEJ096I52
         K23J00S KC2023 05 11.19802512 14 25.951+28 44 13.67         21.05GVEJ096I52
         K23J00S KC2023 05 11.19918012 14 24.882+28 43 58.40         20.38GVEJ096I52
         K23J00S KC2023 05 11.20033712 14 23.798+28 43 43.79         20.44GVEJ096I52
    
    Observer details:
    G96 Mt. Lemmon Survey.  Observer G. J. Leonard.  Measurers E. J. Christensen,
        D. Fay, J. B. Fazekas, D. C. Fuls, A. R. Gibbs, A. D. Grauer, H. Groeller,
        J. K. Hogan, R. A. Kowalski, S. M. Larson, G. J. Leonard, D. Rankin, R. L.
        Seaman, A. Serrano, F. C. Shelly, K. W. Wierzchos.  1.5-m reflector + 10K
        CCD.
    H21 Astronomical Research Observatory, Westfield.  Observer R. Holmes.
        Measurers T. Linder, R. Holmes, L. Horn.  0.81-m f/4.0 astrograph + CCD.
    I52 Steward Observatory, Mt. Lemmon Station.  Observer R. A. Kowalski.
        Measurers E. J. Christensen, D. Fay, J. B. Fazekas, D. C. Fuls, A. R.
        Gibbs, A. D. Grauer, H. Groeller, J. K. Hogan, R. A. Kowalski, S. M.
        Larson, G. J. Leonard, D. Rankin, R. L. Seaman, A. Serrano, F. C. Shelly,
        K. W. Wierzchos.  1.0-m prime focus + CCD.
    L01 Visnjan Observatory, Tican.  Observers K. Korlevic, I. Lyon.  Measurer K.
        Korlevic.  1.0-m f/2.9 reflector + CCD.
    
    Orbital elements:
    2023 JS                                                  Earth MOID = 0.0224 AU
    Epoch 2023 Feb. 25.0 TT = JDT 2460000.5                 Veres                   
    M 305.59076              (2000.0)            P               Q                  
    n   0.49930400     Peri.  213.30791     -0.13975997     +0.93411395             
    a   1.5735940      Node    50.96762     -0.79077371     +0.09435973             
    e   0.3720639      Incl.   25.01571     -0.59593967     -0.34427803             
    P   1.97           H   24.27          G   0.15           U   8                  
    Residuals in seconds of arc
    230509 G96  0.1+  0.1-    230509 L01  0.1+  0.1-    230510 H21  0.1-  0.2-
    230509 G96  0.8-  0.7-    230509 L01  0.1+  0.6-    230510 H21  0.2-  0.2-
    230509 G96  0.2-  0.2+    230509 L01  0.3+  0.3-    230511 I52  0.1+  0.0
    230509 G96  0.3-  0.0     230509 L01  0.4+  0.0     230511 I52  0.0   0.1+
    230509 I52  0.2+  0.1+    230510 H21  0.1+  0.1+    230511 I52  0.0   0.2-
    230509 I52  0.1-  0.2+    230510 H21  0.3+  0.1-    230511 I52  0.2-  0.2+
    230509 I52  0.2+  0.4+    230510 H21  0.1+  0.2-
    
    Ephemeris:
    2023 JS                  a,e,i = 1.57, 0.37, 25                  q = 0.9881
    Date    TT    R. A. (2000) Decl.     Delta      r    Elong.  Phase     V
    2023 04 11    15 13 02.7 +48 04 51   0.3086  1.1796   118.2    48.4    23.9
    ...
    2023 04 26    14 31 12.9 +48 01 26   0.1883  1.1085   118.6    52.9    22.8
    ...
    2023 05 04    13 38 22.8 +43 37 27   0.1270  1.0751   118.9    55.2    22.0
    ...
    2023 05 10    12 31 25.7 +32 38 55   0.08678 1.0529   117.9    57.9    21.2
    2023 05 11    12 17 20.6 +29 26 31   0.08124 1.0495   117.3    58.8    21.0
    2023 05 12    12 02 25.8 +25 40 20   0.07624 1.0461   116.4    59.9    20.9
    ...
    2023 05 18    10 21 00.1 -07 46 09   0.06411 1.0276   102.9    73.6    20.9
    ...
    2023 05 26    08 17 51.2 -40 31 34   0.09894 1.0080    84.4    90.0    22.4
    ...
    2023 06 10    06 21 18.3 -52 23 14   0.2071  0.9890    76.9    91.3    24.1
    
    M. P. C. Staff               (C) Copyright 2023 MPC           M.P.E.C. 2023-J96
    


    Read MPEC 2023-J95 Read MPEC 2023-J97


    MPEC number:

    Enter an MPEC number in one of the following forms:

    • 1997-B01 (the full form)
    • J97B01 (the packed version of the full form)
    • B01 (the abbreviated form)